Wind_Speed
29 29 29 30 30 29 29 27 26 24 23 21 21 21 21 21 21 21 21 21 19 19 18 18 17 17 17 17 16 16 16 15 15 16 16 16 15 14 14 14 14 14 14 14
30 30 30 30 30 30 29 28 27 26 24 22 22 22 23 23 21 21 21 21 20 19 18 18 17 17 16 16 16 16 15 15 15 16 17 16 16 16 15 15 15 15 15 15
29 29 30 32 30 30 29 28 27 25 24 23 23 23 24 23 23 22 21 21 20 20 19 18 17 16 16 17 17 16 16 16 16 17 17 17 17 17 16 16 16 16 16 16
28 29 31 30 29 29 29 28 27 26 25 24 23 23 24 24 23 22 21 20 20 20 19 18 18 17 17 17 17 17 17 18 18 18 18 18 18 18 17 16 17 17 17 17
28 29 29 30 29 29 29 29 28 27 26 25 23 24 24 24 23 22 21 21 20 20 19 19 19 18 18 18 18 19 19 19 19 19 18 18 18 18 18 18 18 18 19 19
28 28 29 29 29 28 28 28 27 26 25 24 24 24 24 23 23 22 21 21 21 20 20 20 20 19 19 19 20 19 20 20 20 19 19 18 19 19 19 19 19 19 20 20
28 28 28 28 28 27 27 26 25 25 25 24 24 25 24 23 23 23 22 22 22 22 21 21 21 21 20 20 20 20 19 19 19 19 19 19 19 19 19 19 20 20 20 20
27 28 27 27 27 27 26 25 24 23 23 24 24 25 24 24 24 24 23 23 22 22 22 22 22 22 22 21 21 20 20 19 19 19 19 20 20 20 19 20 20 20 20 20
27 27 26 25 26 26 25 24 23 22 23 23 23 24 24 25 26 25 24 23 23 23 22 22 22 22 22 22 21 21 21 20 20 20 20 20 19 20 20 20 21 21 21 21
23 25 24 24 23 23 23 23 22 22 22 24 24 24 24 24 25 26 26 25 24 24 24 24 23 23 23 22 23 23 22 21 21 20 20 20 20 20 20 21 21 21 21 21
20 22 22 21 22 23 23 22 22 22 23 23 24 24 24 24 24 25 25 25 25 25 25 25 24 24 23 23 22 21 21 21 21 21 21 21 21 21 21 21 22 22 22 22
19 19 20 20 21 22 22 22 22 22 22 22 23 23 23 24 24 24 24 24 25 25 25 25 25 25 24 24 23 22 21 22 22 22 22 22 22 21 21 21 21 21 22 22
18 19 18 19 20 21 21 22 22 22 22 22 22 22 23 23 23 24 24 24 24 24 25 25 25 25 25 25 24 23 23 23 23 23 23 22 22 22 22 22 21 21 20 21
18 19 18 18 19 19 19 20 21 22 22 21 21 22 22 22 23 23 24 23 24 24 24 24 24 24 25 25 25 25 24 24 23 23 23 22 22 22 22 22 22 21 20 20
16 18 18 18 18 18 18 18 19 20 20 20 20 21 21 22 22 22 23 23 23 24 24 23 23 24 25 25 25 25 25 24 24 23 23 23 23 23 23 22 22 22 22 21
15 15 16 17 18 18 18 17 17 18 19 19 19 20 20 21 21 21 22 22 22 22 22 23 23 24 24 24 24 24 24 24 23 23 23 23 23 23 23 23 23 23 23 23
15 15 15 16 17 18 18 17 17 18 18 18 19 19 19 20 20 21 21 20 21 22 22 23 24 23 23 23 23 23 24 24 24 23 23 24 24 24 24 24 25 25 24 24
15 15 15 15 15 16 17 17 18 17 17 18 19 19 19 19 20 20 21 20 20 21 21 22 22 23 23 23 22 23 23 24 24 24 24 24 23 24 24 24 25 25 26 26
13 14 14 14 15 15 15 15 17 17 17 18 18 18 18 18 18 19 19 19 18 18 18 19 20 21 23 23 23 23 23 24 24 24 24 24 24 24 25 25 26 26 26 26
13 13 13 13 13 14 15 14 15 15 15 17 18 18 17 17 17 18 18 19 18 17 18 18 19 20 21 22 22 23 23 23 24 24 24 24 24 25 25 26 26 27 27 27
12 13 13 13 13 14 14 15 15 15 14 15 16 16 17 17 17 17 17 18 18 17 18 18 19 19 20 20 20 21 21 22 23 24 24 25 25 25 26 26 27 27 27 27
12 12 13 14 14 14 14 15 15 15 14 15 15 15 15 15 15 16 17 17 18 18 18 18 19 19 19 19 20 20 21 21 22 22 23 24 24 25 25 26 26 26 26 26
13 13 14 14 14 14 14 15 15 15 15 15 16 15 15 16 16 16 16 16 17 17 18 18 19 19 19 20 20 20 21 21 22 22 23 23 23 24 24 25 25 25 25 25
14 14 14 15 15 15 15 16 16 17 17 16 16 16 16 16 16 16 16 16 17 17 17 17 18 18 19 19 19 19 20 20 21 22 22 23 23 23 24 24 24 25 25 25
14 14 14 14 15 16 16 17 17 17 16 16 17 17 16 16 16 16 15 16 16 17 17 17 17 17 18 18 18 19 19 20 20 21 21 22 22 23 23 24 24 24 24 25
15 15 15 14 14 15 16 16 16 16 16 16 16 17 17 16 16 16 16 17 17 18 18 18 17 17 18 19 19 19 20 21 21 21 21 21 22 22 23 24 24 24 24 24
13 13 14 14 14 14 14 15 15 15 15 15 15 15 16 16 17 17 17 18 17 18 18 18 18 17 17 18 18 19 19 19 20 20 20 21 22 22 23 23 24 24 24 25
Wind_Direction
237 236 236 236 235 235 236 237 239 242 243 245 247 248 247 249 251 253 257 259 260 263 266 269 270 266 261 259 258 259 261 264 265 267 269 268 271 268 266 264 264 263 257 256
238 237 236 235 235 235 236 237 239 241 242 243 246 247 247 248 250 253 256 257 258 261 263 266 266 266 263 259 260 261 261 262 264 266 268 269 271 268 266 265 262 258 259 260
238 237 235 233 232 234 237 239 241 242 242 244 245 245 245 246 248 251 256 257 258 260 260 262 263 263 262 262 260 258 259 262 265 268 267 267 268 267 265 264 260 260 262 265
235 237 235 232 233 235 237 239 240 241 241 242 244 243 243 244 246 250 255 257 258 259 259 260 260 261 262 262 259 260 263 265 266 267 266 265 266 264 262 262 263 264 266 266
233 237 234 233 233 234 236 238 238 239 240 241 243 243 242 243 246 249 252 256 257 258 258 258 259 261 261 262 263 263 264 267 267 268 265 266 267 266 262 263 265 265 266 267
232 232 232 234 235 235 236 237 236 237 238 239 240 241 242 242 246 249 252 255 256 258 258 259 260 263 264 264 265 265 265 265 266 267 267 268 268 265 262 262 264 264 265 268
232 232 233 233 233 232 233 234 235 236 236 237 239 240 241 242 245 248 252 253 256 259 259 259 261 262 264 264 265 264 262 263 264 266 267 268 267 263 262 263 263 263 265 265
230 230 230 231 229 229 230 232 233 235 236 237 240 240 241 242 244 247 251 254 256 259 259 259 260 262 262 263 263 262 262 262 265 266 267 268 266 264 264 264 263 263 264 264
230 229 229 229 228 229 230 230 232 234 236 237 239 241 243 243 245 248 251 253 255 257 258 259 260 261 261 262 261 260 260 261 262 263 265 266 267 268 267 265 265 265 264 264
227 227 227 227 228 227 226 229 230 233 236 237 238 242 246 247 246 247 248 250 253 256 256 258 260 261 260 259 258 258 259 259 261 262 264 267 268 271 270 267 265 264 266 266
224 226 226 225 227 228 228 230 231 233 236 238 240 244 246 246 246 246 247 250 252 254 255 257 258 260 258 257 256 256 256 258 260 262 265 267 269 270 270 269 265 266 267 267
223 221 221 222 225 229 230 232 234 236 238 236 238 242 244 246 247 247 248 250 252 254 256 257 257 256 255 256 255 257 258 259 261 262 264 266 268 268 270 272 269 268 268 267
223 221 220 222 227 233 234 233 235 236 237 238 238 241 244 246 246 247 250 252 253 255 256 256 256 255 254 256 255 256 257 258 260 262 264 265 266 268 270 271 271 270 269 268
222 223 224 226 228 232 234 235 236 236 237 238 239 241 243 245 247 248 251 253 255 255 254 255 256 255 254 255 255 256 258 259 260 262 263 264 265 267 269 270 272 272 271 270
225 226 226 225 226 231 235 236 236 237 239 241 241 243 245 247 248 251 254 255 256 256 255 256 258 257 256 256 256 257 259 259 261 263 262 263 265 267 269 269 269 270 272 272
228 229 227 226 229 233 234 234 235 238 240 243 243 243 246 248 250 253 255 255 255 257 256 256 256 256 255 256 256 258 259 259 260 261 261 262 264 265 267 267 268 269 271 272
227 228 228 229 229 231 235 237 239 241 242 244 244 244 246 247 250 253 256 258 257 257 256 256 256 255 255 257 258 259 259 259 259 260 260 261 262 263 264 265 265 266 268 270
227 228 231 231 230 232 237 241 244 246 244 243 245 246 248 249 250 253 254 256 259 259 257 258 257 255 255 257 259 260 259 258 257 258 259 260 260 261 262 263 263 265 267 269
228 228 230 233 234 237 242 245 248 250 250 249 246 244 246 248 249 251 253 254 255 259 260 259 259 259 258 257 259 260 259 258 257 257 258 259 260 262 262 263 264 266 268 269
226 229 232 235 236 239 243 246 249 250 250 252 252 251 250 251 253 255 256 255 255 257 259 260 261 263 261 258 258 259 259 259 258 257 258 259 261 263 265 265 265 265 267 267
232 233 236 240 244 244 245 246 248 250 251 253 253 256 256 256 259 260 259 261 259 257 258 259 261 262 261 259 259 259 259 259 259 259 260 261 262 264 265 265 264 265 266 267
238 237 239 243 246 247 248 247 248 250 252 254 256 258 257 257 259 260 259 260 260 260 263 264 263 263 261 260 261 260 260 261 261 261 263 263 264 265 266 266 267 266 265 265
240 242 244 246 246 247 249 250 251 252 254 257 259 260 260 260 260 260 259 261 264 265 264 264 264 262 260 260 261 261 260 261 262 263 264 264 266 267 267 267 267 266 265 265
240 244 247 248 249 252 253 253 254 255 256 258 260 262 264 264 264 265 265 264 265 265 265 265 264 262 259 260 261 260 260 260 263 266 267 267 268 269 269 269 268 268 267 268
245 246 248 250 251 253 255 256 257 257 257 259 260 260 262 264 265 267 268 266 265 265 267 267 266 263 259 259 261 262 263 263 265 267 267 267 268 270 270 270 269 269 268 267
249 250 252 253 256 257 256 256 257 258 258 259 260 261 261 261 264 267 268 267 265 266 267 266 265 265 263 262 264 266 267 267 267 267 266 267 269 270 272 272 270 268 267 266
252 254 256 257 259 260 259 258 258 258 260 261 262 263 263 263 264 267 270 270 266 264 264 265 267 270 268 267 266 266 266 267 268 269 269 270 271 272 272 271 269 267 266 265
Height
5768 5771 5774 5777 5781 5784 5788 5792 5795 5798 5801 5802 5803 5805 5806 5807 5809 5810 5811 5811 5812 5812 5813 5813 5812 5812 5812 5812 5813 5813 5814 5814 5814 5813 5813 5813 5813 5813 5813 5812 5812 5813 5813 5813
5760 5763 5766 5769 5773 5777 5781 5784 5788 5791 5794 5796 5797 5798 5800 5801 5803 5804 5805 5805 5806 5807 5807 5808 5808 5807 5808 5808 5808 5809 5809 5809 5809 5809 5809 5809 5809 5809 5809 5809 5809 5809 5809 5809
5753 5756 5758 5762 5767 5770 5774 5777 5781 5784 5788 5789 5790 5792 5794 5795 5797 5798 5799 5800 5801 5802 5802 5802 5803 5803 5803 5803 5804 5804 5805 5805 5805 5805 5805 5805 5805 5804 5804 5805 5805 5805 5805 5805
5745 5749 5751 5758 5761 5764 5767 5770 5774 5777 5780 5781 5783 5785 5787 5789 5791 5792 5794 5795 5795 5796 5797 5797 5798 5798 5798 5798 5799 5799 5800 5800 5800 5800 5800 5800 5800 5800 5800 5800 5801 5801 5801 5801
5738 5741 5745 5750 5753 5756 5759 5763 5766 5769 5772 5774 5777 5779 5781 5783 5785 5787 5788 5789 5790 5791 5792 5792 5792 5793 5793 5793 5794 5794 5794 5795 5795 5795 5795 5795 5795 5795 5795 5796 5796 5796 5796 5796
5731 5735 5739 5744 5746 5749 5753 5756 5759 5762 5765 5768 5770 5773 5776 5777 5779 5781 5782 5783 5784 5785 5786 5787 5787 5787 5788 5788 5788 5788 5788 5789 5789 5790 5790 5790 5790 5790 5790 5791 5791 5791 5791 5791
5724 5728 5732 5735 5739 5743 5747 5750 5753 5755 5758 5761 5764 5767 5769 5771 5773 5775 5776 5777 5778 5779 5780 5781 5781 5781 5781 5782 5782 5782 5782 5783 5783 5783 5784 5784 5784 5784 5785 5785 5785 5785 5785 5786
5718 5722 5727 5728 5732 5736 5740 5743 5746 5749 5752 5755 5758 5760 5762 5765 5767 5768 5770 5771 5772 5773 5774 5775 5775 5775 5775 5775 5775 5775 5776 5776 5777 5777 5778 5778 5778 5778 5779 5779 5779 5780 5780 5780
5713 5718 5719 5722 5726 5730 5734 5737 5741 5744 5747 5749 5752 5754 5756 5758 5760 5762 5763 5764 5765 5766 5767 5768 5768 5769 5769 5769 5769 5769 5770 5770 5771 5771 5772 5772 5772 5772 5772 5773 5773 5774 5774 5774
5707 5711 5714 5717 5720 5724 5728 5732 5735 5738 5740 5743 5745 5747 5749 5751 5753 5754 5756 5757 5758 5759 5760 5761 5762 5762 5762 5762 5762 5763 5763 5764 5765 5765 5766 5766 5766 5766 5766 5767 5767 5767 5767 5767
5702 5706 5708 5712 5715 5719 5723 5726 5729 5732 5734 5736 5738 5740 5742 5743 5745 5747 5748 5750 5751 5752 5753 5753 5754 5755 5755 5755 5756 5756 5757 5758 5758 5759 5759 5760 5760 5760 5760 5760 5761 5761 5761 5761
5698 5701 5705 5708 5711 5715 5718 5721 5723 5725 5727 5729 5731 5733 5734 5736 5738 5739 5741 5742 5743 5744 5745 5746 5746 5747 5748 5748 5749 5750 5751 5751 5752 5753 5753 5753 5754 5754 5754 5754 5755 5755 5755 5755
5695 5698 5701 5704 5707 5710 5713 5715 5717 5719 5721 5723 5724 5726 5727 5729 5730 5732 5733 5734 5735 5736 5737 5737 5738 5739 5740 5741 5742 5743 5744 5745 5746 5746 5747 5747 5747 5748 5748 5749 5748 5748 5748 5748
5692 5694 5697 5700 5703 5705 5708 5710 5711 5713 5715 5717 5718 5719 5721 5722 5723 5724 5725 5726 5727 5728 5728 5729 5730 5731 5732 5733 5735 5736 5737 5738 5739 5739 5740 5740 5741 5741 5742 5742 5742 5742 5742 5742
5688 5691 5694 5696 5698 5701 5703 5705 5706 5708 5709 5711 5712 5713 5714 5715 5716 5717 5718 5718 5719 5720 5721 5721 5723 5724 5725 5726 5727 5729 5730 5731 5731 5732 5733 5733 5734 5734 5735 5735 5735 5736 5736 5736
5685 5687 5690 5692 5694 5696 5698 5700 5701 5703 5704 5705 5706 5707 5708 5709 5710 5710 5711 5711 5712 5713 5713 5714 5716 5717 5717 5718 5720 5721 5722 5723 5724 5725 5725 5726 5727 5727 5728 5728 5728 5728 5729 5729
5682 5684 5686 5688 5690 5692 5693 5695 5696 5697 5699 5700 5701 5702 5702 5703 5703 5704 5704 5705 5705 5706 5706 5707 5708 5709 5710 5712 5713 5714 5715 5716 5716 5717 5718 5718 5719 5720 5720 5720 5721 5721 5721 5721
5678 5680 5682 5684 5685 5687 5688 5690 5691 5692 5693 5694 5695 5696 5696 5697 5697 5698 5698 5698 5699 5699 5699 5700 5701 5702 5704 5705 5706 5707 5707 5708 5709 5710 5710 5711 5711 5712 5712 5712 5713 5713 5714 5714
5675 5677 5678 5680 5681 5682 5684 5685 5686 5687 5688 5688 5689 5690 5690 5691 5691 5691 5692 5692 5692 5693 5693 5694 5695 5696 5697 5698 5699 5699 5700 5700 5701 5702 5702 5703 5703 5704 5704 5704 5705 5705 5705 5705
5671 5673 5675 5676 5677 5678 5679 5680 5681 5682 5682 5683 5683 5684 5685 5685 5685 5685 5685 5686 5686 5687 5687 5688 5689 5689 5690 5691 5691 5692 5692 5693 5693 5694 5694 5695 5695 5696 5696 5696 5696 5696 5697 5697
5668 5670 5671 5672 5673 5674 5675 5676 5676 5677 5677 5678 5679 5679 5679 5679 5680 5680 5680 5681 5681 5681 5682 5682 5683 5683 5683 5683 5684 5684 5684 5685 5685 5686 5686 5687 5687 5687 5687 5687 5687 5688 5688 5688
5664 5665 5667 5668 5669 5670 5670 5671 5672 5673 5673 5673 5674 5674 5674 5674 5675 5675 5675 5675 5675 5676 5676 5676 5676 5677 5677 5677 5677 5677 5677 5678 5678 5678 5678 5679 5679 5679 5679 5679 5679 5679 5679 5679
5660 5661 5663 5664 5664 5665 5666 5666 5667 5668 5668 5669 5669 5669 5669 5669 5669 5670 5670 5670 5670 5670 5670 5670 5670 5670 5671 5671 5671 5670 5671 5671 5671 5671 5671 5671 5671 5671 5671 5671 5671 5671 5671 5671
5656 5657 5658 5659 5660 5660 5661 5661 5662 5663 5663 5664 5664 5664 5664 5664 5664 5664 5664 5664 5664 5664 5664 5664 5664 5664 5664 5664 5664 5664 5664 5664 5665 5664 5664 5664 5664 5663 5663 5663 5663 5663 5663 5663
5651 5652 5653 5654 5654 5655 5655 5656 5656 5657 5658 5658 5658 5659 5659 5659 5659 5659 5659 5659 5659 5659 5659 5659 5658 5658 5658 5658 5658 5658 5658 5658 5658 5658 5657 5657 5657 5656 5656 5655 5655 5654 5654 5654
5647 5647 5648 5649 5649 5650 5650 5650 5651 5651 5652 5652 5653 5653 5653 5654 5654 5654 5654 5653 5653 5653 5653 5653 5652 5652 5652 5652 5652 5652 5652 5651 5651 5651 5650 5650 5650 5649 5648 5648 5647 5646 5646 5647
5642 5642 5643 5643 5644 5644 5644 5645 5645 5646 5646 5647 5647 5648 5648 5648 5648 5649 5648 5648 5648 5647 5647 5647 5647 5647 5646 5646 5646 5646 5645 5645 5644 5644 5643 5643 5642 5642 5641 5640 5639 5639 5639 5639